EW7448 Weather Reports


Display with metric or nautical units.
time (UTC)temp
F
wind
direction
speed
MPH
gust
MPH
rain 1hr
in
rain 24hr
in
rain mn
in
humidity
%
barometer
mb
20260906113003 74 245 0.0 1.0 0.00 0.23 0.00 98 1011.0
20260906111503 74 245 0.0 1.0 0.00 0.23 0.00 98 1010.9
20260906110002 74 245 0.0 1.0 0.00 0.23 0.00 98 1010.7
20260906104503 74 245 0.0 1.0 0.00 0.23 0.00 98 1010.5
20260906103001 74 245 0.0 1.0 0.00 0.23 0.00 98 1010.2
20260906101601 74 245 0.0 1.0 0.00 0.23 0.00 98 1010.0
20260906094602 74 245 0.0 0.0 0.00 0.23 0.00 98 1009.5
20260906093058 74 245 0.0 0.0 0.00 0.23 0.00 98 1009.3
20260906091605 74 245 0.0 0.0 0.00 0.23 0.00 98 1009.2
20260906090059 74 245 0.0 0.0 0.00 0.23 0.00 98 1009.1
20260906084557 74 245 0.0 1.0 0.00 0.23 0.00 98 1009.1
20260906083100 74 245 0.0 1.0 0.00 0.23 0.00 98 1009.2
20260906081558 74 245 0.0 0.0 0.00 0.23 0.00 97 1009.4
20260906080107 74 245 0.0 0.0 0.00 0.23 0.00 97 1009.3
20260906074556 73 245 0.0 1.0 0.00 0.23 0.00 97 1009.3
20260906073052 74 245 0.0 0.0 0.00 0.23 0.00 97 1009.4
20260906071600 74 245 0.0 1.0 0.00 0.23 0.00 96 1009.6
20260906070049 74 245 0.0 1.0 0.00 0.23 0.00 96 1009.8
20260906064547 74 245 0.0 1.0 0.00 0.23 0.00 96 1010.0
20260906063048 74 245 0.0 1.0 0.00 0.23 0.00 96 1010.3
20260906061544 74 226 0.0 1.0 0.00 0.23 0.00 96 1010.5
20260906060042 74 198 0.0 1.0 0.00 0.23 0.00 96 1010.7
20260906054541 74 157 0.0 0.0 0.00 0.23 0.00 96 1010.9
20260906053044 74 156 0.0 0.0 0.00 0.23 0.00 96 1011.1
20260906051537 74 156 0.0 1.0 0.00 0.23 0.00 97 1011.2
20260906050036 74 196 0.0 3.0 0.00 0.23 0.00 97 1011.2
20260906044535 74 186 0.0 3.0 0.00 0.23 0.00 97 1011.2
20260906043034 75 153 0.0 1.0 0.00 0.23 0.00 98 1011.3
20260906041532 74 163 0.0 0.0 0.00 0.23 0.00 98 1011.4
20260906040036 74 162 0.0 0.0 0.00 0.23 0.00 97 1011.4
20260906034536 74 163 0.0 2.0 0.00 0.23 0.23 97 1011.3
20260906033031 75 210 0.0 3.0 0.00 0.23 0.23 97 1011.1
20260906031528 75 193 0.0 3.0 0.01 0.23 0.23 97 1011.0
20260906030029 75 169 0.0 1.0 0.01 0.23 0.23 97 1011.1
20260906024527 75 229 0.0 0.0 0.01 0.24 0.23 97 1011.3
20260906023026 75 229 0.0 2.0 0.01 0.24 0.23 97 1011.6
20260906021527 75 240 0.0 1.0 0.01 0.23 0.22 97 1011.6
20260906020027 75 230 0.0 1.0 0.01 0.23 0.22 97 1011.5
20260906014538 75 208 0.0 2.0 0.01 0.23 0.22 96 1011.4
20260906013024 75 209 0.0 4.0 0.02 0.23 0.22 96 1011.4
20260906011534 76 220 0.0 4.0 0.01 0.22 0.21 96 1011.4
20260906010022 76 122 0.0 4.0 0.02 0.22 0.21 96 1011.5
20260906004534 76 116 0.0 2.0 0.02 0.22 0.21 95 1011.8
20260906003032 76 177 1.0 4.0 0.01 0.21 0.20 93 1011.8
20260906001520 77 130 0.0 1.0 0.01 0.21 0.20 91 1011.4
20260906000020 77 359 0.0 0.0 0.00 0.20 0.19 88 1011.3
20260905234520 78 359 0.0 2.0 0.00 0.22 0.19 88 1011.2
20260905233020 79 15 0.0 11.0 0.00 0.22 0.19 87 1011.8
20260905231518 80 286 5.0 11.0 0.00 0.22 0.19 88 1011.9
20260905230019 80 152 0.0 2.0 0.00 0.22 0.19 91 1010.8
20260905224526 81 112 0.0 5.0 0.00 0.22 0.19 90 1010.8
20260905223017 81 127 0.0 3.0 0.00 0.22 0.19 89 1011.1
20260905221515 81 143 0.0 3.0 0.00 0.22 0.19 88 1010.3
20260905220021 80 93 0.0 2.0 0.00 0.22 0.19 90 1009.8
20260905214512 79 162 0.0 3.0 0.00 0.22 0.19 91 1010.1
20260905213028 79 89 1.0 4.0 0.00 0.22 0.19 92 1010.4
20260905211511 79 49 1.0 6.0 0.00 0.22 0.19 92 1010.5
20260905210013 79 14 4.0 12.0 0.00 0.22 0.19 91 1011.4
20260905204512 80 15 4.0 8.0 0.16 0.22 0.19 89 1011.7
20260905203009 82 113 1.0 7.0 0.19 0.22 0.19 90 1010.8
20260905201508 84 345 4.0 11.0 0.19 0.22 0.19 90 1010.7
20260905200009 84 152 0.0 4.0 0.19 0.22 0.19 87 1010.4
20260905194506 88 233 1.0 6.0 0.01 0.04 0.01 80 1010.5
20260905193003 95 226 0.0 2.0 0.00 0.03 0.00 65 1010.4
20260905191503 97 231 0.0 2.0 0.00 0.03 0.00 65 1010.4
20260905190002 97 211 0.0 6.0 0.00 0.03 0.00 61 1010.6
20260905184502 97 210 1.0 6.0 0.00 0.03 0.00 62 1010.5
20260905183100 96 195 0.0 4.0 0.00 0.03 0.00 65 1010.6
20260905181557 96 250 1.0 6.0 0.00 0.03 0.00 65 1010.8
20260905180058 95 226 0.0 3.0 0.00 0.03 0.00 70 1010.9
20260905174549 94 279 0.0 5.0 0.00 0.03 0.00 70 1011.1
20260905173044 95 23 1.0 5.0 0.00 0.03 0.00 69 1011.4
20260905171541 93 212 1.0 4.0 0.00 0.03 0.00 72 1011.5
20260905170046 93 170 0.0 4.0 0.00 0.03 0.00 72 1011.8
20260905164540 93 217 0.0 3.0 0.00 0.03 0.00 73 1011.9
20260905163039 92 291 0.0 3.0 0.00 0.03 0.00 74 1012.1
20260905161537 93 267 0.0 5.0 0.00 0.03 0.00 75 1012.3
20260905160040 92 143 0.0 6.0 0.00 0.03 0.00 75 1012.6
20260905154529 91 282 0.0 7.0 0.00 0.03 0.00 78 1012.7
20260905153035 90 215 1.0 4.0 0.00 0.03 0.00 79 1012.8
20260905151525 90 198 1.0 5.0 0.00 0.03 0.00 81 1012.9
20260905150021 89 184 0.0 5.0 0.00 0.03 0.00 83 1012.8
20260905144526 89 250 0.0 3.0 0.00 0.03 0.00 84 1013.0
20260905143014 87 182 0.0 4.0 0.00 0.03 0.00 87 1012.8
20260905141513 87 176 0.0 5.0 0.00 0.03 0.00 88 1013.0
20260905140009 87 214 0.0 3.0 0.00 0.03 0.00 89 1013.0
20260905134504 86 160 0.0 3.0 0.00 0.03 0.00 90 1013.0
20260905133101 85 231 0.0 3.0 0.00 0.03 0.00 91 1012.9
20260905131556 83 200 0.0 3.0 0.00 0.03 0.00 93 1012.9
20260905130052 81 231 0.0 2.0 0.00 0.03 0.00 95 1012.8
20260905124548 79 205 0.0 2.0 0.00 0.03 0.00 98 1012.9
20260905123047 77 199 0.0 0.0 0.00 0.03 0.00 98 1012.9
20260905121546 77 199 0.0 0.0 0.00 0.03 0.00 98 1012.8
20260905120045 76 199 0.0 0.0 0.00 0.03 0.00 98 1012.7
20260905114547 76 199 0.0 0.0 0.00 0.03 0.00 98 1012.6